Regional Weather Roundup
Issued by NWS Charleston, SC

Current Version | Previous Version | Graphics & Text | Print | Product List | Glossary On
Versions: 1 2 3 4 5 6 7 8 9 10 11 12 13 14 15 16 17 18 19 20 21 22 23 24 25 26 27 28 29 30 31 32 33 34 35 36 37 38 39 40 41 42 43 44 45 46 47 48 49 50
000
ASUS42 KCHS 072027
RWRCHS

REGIONAL WEATHER ROUNDUP
NATIONAL WEATHER SERVICE CHARLESTON SC
400 PM EDT TUE JUL 07 2015

NOTE: "FAIR" INDICATES FEW OR NO CLOUDS BELOW 12,000 FEET WITH NO
SIGNIFICANT WEATHER AND/OR OBSTRUCTIONS TO VISIBILITY.

NOT ALL STATIONS ARE QUALITY CONTROLLED BY THE NATIONAL
WEATHER SERVICE. USE DATA WITH CAUTION...ESPECIALLY
DEWPOINT OBSERVATIONS.

SCZ027-030-031-034>040-042>050-072100-
...SOUTHEAST SOUTH CAROLINA...

CITY           SKY/WX    TMP DP  RH WIND       PRES   REMARKS
N CHARLESTON   PTSUNNY   78  73  84 S10       30.13F
WATERFRONT PAR   N/A     84  70  62 CALM      30.12R
MOUNT PLEASANT FAIR      82  72  69 SW6       30.13F
JOHNS ISLAND   CLOUDY    79  75  89 SW7       30.13F
PINOPOLIS      NOT AVBL
MONCKS CORNER  FAIR      81  72  74 SW6       30.12S THUNDER
SUMMERVILLE    TSTM      79  73  83 CALM      30.14R
BEAUFORT MCAS  CLOUDY    79  74  84 SE5       30.13F
BEAUFORT ARPT  FAIR      77  73  88 S3        30.12F FOG
HILTON HEAD IS RAIN      77  70  78 S9        30.16S
WALTERBORO     CLOUDY    81  72  74 S7        30.14R
ALLENDALE      FAIR      91  72  52 CALM      30.09F HX  98

...SOUTHERN MIDLANDS AND PEE DEE...

CITY           SKY/WX    TMP DP  RH WIND       PRES   REMARKS
GEORGETOWN     NOT AVBL
KINGSTREE      NOT AVBL
ORANGEBURG     PTSUNNY   88  70  55 S3        30.10S HX  93
BARNWELL       FAIR      91  72  52 W7        30.10S HX  98
AIKEN          NOT AVBL
MANNING        FAIR      84  64  51 S6        30.10S
COLUMBIA       PTSUNNY   93  68  43 W7        30.08F HX  97
SUMTER         MOSUNNY   92  70  49 S9        30.07F HX  97
FLORENCE       MOSUNNY   91  68  46 SW7       30.08F HX  95
MYRTLE BEACH   MOSUNNY   86  75  70 S17       30.14S HX  95
N MYRTLE BEACH MOSUNNY   86  74  67 S14       30.13S HX  94

$$

GAZ063-065-086>088-099>101-113>116-118-119-134>141-150-072100-
...SOUTHEAST GEORGIA...

CITY           SKY/WX    TMP DP  RH WIND       PRES   REMARKS
SAVANNAH ARPT  PTSUNNY   75  72  88 SE13      30.11F
HUNTER AAF     TSTM      73  70  88 VRB5      30.11F FOG
FORT STEWART   MOSUNNY   92  73  53 S5        30.08F HX 100
STATESBORO     NOT AVBL
SYLVANIA       PTCLDY    94  73  50 NW9       30.11F HX 102
CLAXTON        FAIR      90  70  51 CALM      30.10S HX  95

...CSRA...CENTRAL AND FAR SOUTHEAST GEORGIA...

CITY           SKY/WX    TMP DP  RH WIND       PRES   REMARKS
THOMSON        PTSUNNY   91  74  56 SW6       30.14F HX 100
AUGUSTA-BUSH   PTSUNNY   92  70  48 SW10      30.08F HX  97
AUGUSTA-DANIEL MOSUNNY   94  68  42 CALM      30.11F HX  98
SWAINSBORO     FAIR      93  68  43 W3        30.11F HX  97
VIDALIA        PTSUNNY   91  68  46 W7        30.11F HX  95
EASTMAN        FAIR      92  67  42 S5        30.13F HX  95
HAZLEHURST     FAIR      92  69  47 NW6       30.10F HX  97
ALMA           SUNNY     91  70  49 N6        30.10F HX  96
WAYCROSS       MOSUNNY   95  75  51 NE7       30.10F HX 106
JESUP          MOCLDY    95  72  46 E3        30.11R HX 103
BAXLEY         FAIR      91  70  49 NW3       30.10S HX  97
BRUNSWICK      PTSUNNY   88  70  55 S3        30.14R HX  92
SAINT SIMONS   MOSUNNY   84  72  67 SE13      30.13S

$$

SCZ027-028-034-036>038-045-046-048>050-GAZ119-141-072100-
...LAKE AND SUPPLEMENTAL COASTAL OBSERVATIONS...

STATION/POSITION TIME  TEMP    WIND        PRES    WAVE   SWELL
                       AIR SEA DIR/SP/G            HT/PER HT/PER/DIR
                 (UTC) (F)     (DEG/KT/KT) (MB)    (FT/S) (FT/S/D)
UPR LAKE MARION  NOT AVBL
WINYAH BAY       1945   83     160/ 11     1019.0F
LAKE MURRAY      2000   89     220/ 10/ 11 1017.9F
ACE BASIN NERRS  1900   74        CALM     1021.0S
FORT PULASKI     2000   76 83  300/ 10/ 11 1021.4R
SAPELO ISLAND    2000   89     140/ 10     1020.0S

$$

ANZ835-935-AMZ111-154-330-350-352-354-370-450-454-472-072100-
...C-MAN AND BUOY OBSERVATIONS...

STATION/POSITION TIME  TEMP    WIND        PRES    WAVE   SWELL
                       AIR SEA DIR/SP/G            HT/PER HT/PER/DIR
                 (UTC) (F)     (DEG/KT/KT) (MB)    (FT/S) (FT/S/D)
BUOY 41004       1950   82 83  190/ 12/ 14 1020.2F   3/ 9   3/ 9
BUOY 41008       1950   78 80  160/  8/ 10 1020.3F   2/ 9   2/120/ 9
FOLLY BEACH CMAN 2000   82     210/ 13/ 14 1020.4F
CAPERS NEARSHORE 1908   82     210/ 14/ 16 1020.7F
FRIPP NEARSHORE  1900   82     200/ 12/ 14 1020.3S


STATION/POSITION TIME  TEMP    WIND        PRES    WAVE   SWELL
                       AIR SEA DIR/SP/G            HT/PER HT/PER/DIR
                 (UTC) (F)     (DEG/KT/KT) (MB)    (FT/S) (FT/S/D)
5E ST. MARYS GA  1921      80                N/A     2/ 8
FRYING PAN BUOY  1950   83 81  200/ 10/ 12 1021.0F   3/ 8   2/120/ 8
BUOY 41025       1950   81 83  210/ 17/ 19 1019.9F   3/ 8   2/140/ 8
CAPE LOOKOUT NC  2000   82     200/ 13/ 17 1019.9F
BUOY 41002       1950   83 81  210/ 12/ 14 1022.6F   4/ 9   3/130/ 9
BUOY 41010       1920   83 85  130/  4/  8 1021.8F
ST AUGUSTINE FL  2000   78 74  140/  8/  9 1020.9F


$$



USA.gov is the U.S. government's official web portal to all federal, state and local government web resources and services.